Flag for Austria Weather past 2 weeks in Traun, Upper Austria, Austria

Now
34 °F

Clear.


Feels Like: 25 °F
Forecast: 17 / 35 °F
Wind: 12 mph from East

Location: Linz / Hoersching-Flughafen

Current Time: Jan 30, 2015 at 3:41:57 AM

Latest Report: Jan 30, 2015 at 2:50 AM


Visibility: 10 mi

Pressure: 28.82 "Hg

Humidity: 75%

Dew point: 27 °F

Location of TraunLocation

Historic Weather in Traun — Graph

°F

Traun temperature yesterday

Maximum temperature yesterday: 37 °F (at 1:20 PM)
Minimum temperature yesterday: 30 °F (at 12:20 AM)
Average temperature yesterday: 33 °F

Past Weeks' High & Low Weather Summary

 TemperatureHumidityPressure
High43 °F (Jan 16, 1:50 PM)100% (Jan 16, 3:20 AM)30.33 "Hg (Jan 16, 3:20 AM)
Low27 °F (Jan 26, 8:50 PM)65% (Jan 28, 1:50 PM)28.85 "Hg (Jan 30, 2:20 AM)
Average34 °F88%29.94 "Hg
* Reported Jan 15 2:20 AM — Jan 30 2:20 AM, Traun, Weather by CustomWeather, © 2014

Note: Actual official high and low records may vary slightly from our data, if they occured in-between our weather recording intervals... More about our weather records

Advertising

Traun weather history for previous 24 hours

 ConditionsComfort  
Time TempWeatherWind HumidityBarometerVisibility
2:20 AM
Jan 30
34 °FPassing clouds.12 mph75%28.85 "HgN/A
1:50 AM34 °FClear.10 mph75%28.88 "Hg10 mi
1:20 AM34 °FClear.10 mph75%28.88 "Hg10 mi
12:50 AM32 °FClear.13 mph80%28.88 "Hg10 mi
12:20 AM32 °FClear.12 mph80%28.91 "Hg10 mi
11:50 PM
Jan 29
32 °FClear.12 mph80%28.97 "Hg10 mi
11:20 PM32 °FClear.10 mph80%28.97 "Hg10 mi
10:50 PM32 °FPassing clouds.10 mph80%29.00 "HgN/A
10:20 PM32 °FPassing clouds.12 mph80%29.03 "HgN/A
9:50 PM30 °FPassing clouds.10 mph86%29.06 "HgN/A
9:20 PM32 °FPassing clouds.10 mph87%29.09 "HgN/A
8:50 PM32 °FClear.10 mph87%29.12 "Hg10 mi
8:20 PM32 °FClear.10 mph87%29.18 "Hg10 mi
7:50 PM32 °FClear.9 mph87%29.21 "Hg10 mi
7:20 PM34 °FPartly cloudy.12 mph81%29.21 "HgN/A
6:50 PM34 °FPassing clouds.10 mph81%29.24 "HgN/A
6:20 PM32 °FPassing clouds.10 mph87%29.27 "HgN/A
5:50 PM32 °FPartly cloudy.9 mph87%29.30 "HgN/A
5:20 PM32 °FPassing clouds.7 mph87%29.33 "HgN/A
4:50 PM34 °FPartly sunny.8 mph81%29.33 "HgN/A
4:20 PM34 °FPartly sunny.9 mph87%29.33 "HgN/A
3:50 PM34 °FPartly sunny.8 mph87%29.36 "HgN/A
3:20 PM36 °FBroken clouds.7 mph81%29.39 "HgN/A
2:50 PM37 °FPartly sunny.3 mph70%29.39 "HgN/A
2:20 PM37 °FScattered clouds.1 mph75%29.42 "HgN/A
1:50 PM37 °FScattered clouds.2 mph70%29.42 "HgN/A
1:20 PM37 °FBroken clouds.2 mph75%29.47 "HgN/A
12:50 PM36 °FBroken clouds.5 mph81%29.47 "HgN/A
12:20 PM36 °FPartly sunny.3 mph81%29.50 "HgN/A
11:50 AM36 °FPartly sunny.7 mph75%29.53 "HgN/A
11:20 AM36 °FBroken clouds.7 mph75%29.53 "HgN/A
10:50 AM34 °FPartly sunny.10 mph87%29.53 "HgN/A
10:20 AM34 °FBroken clouds.7 mph93%29.53 "HgN/A
9:50 AM34 °FBroken clouds.9 mph93%29.56 "HgN/A
9:20 AM34 °FBroken clouds.8 mph93%29.53 "HgN/A
8:50 AM34 °FBroken clouds.8 mph93%29.53 "HgN/A
8:20 AM32 °FBroken clouds.3 mph93%29.53 "Hg5 mi
7:50 AM30 °FLight snow. Ice fog.1 mph100%29.53 "Hg2 mi
7:20 AM30 °FLight snow. Partly cloudy.2 mph100%29.53 "Hg3 mi
6:50 AM30 °FLight snow. Partly cloudy.2 mph100%29.53 "Hg2 mi
6:20 AM30 °FSnow. Passing clouds.2 mph100%29.53 "Hg1 mi
5:50 AM30 °FLight snow. Partly cloudy.3 mph100%29.50 "Hg2 mi
5:20 AM30 °FLight snow. Partly cloudy.5 mph100%29.53 "Hg2 mi
4:50 AM30 °FLight snow. Partly cloudy.5 mph100%29.53 "Hg2 mi
4:20 AM30 °FSnow. Partly cloudy.5 mph100%29.53 "Hg1 mi
3:50 AM30 °FSnow. Partly cloudy.5 mph100%29.53 "Hg2 mi
3:20 AM30 °FSnow. Passing clouds.3 mph100%29.53 "Hg2 mi
Weather by CustomWeather, © 2014

See weather overviewHow to use our weather pages